Mount Vernon, IL

7:30 AM CDT on July 28, 2017 (GMT -0500)
Mount Vernon

Weather History for KMVN - March, 2013

Change the Weather History Date:

Sunday, March 10, 2013

  Actual Average Record
Temperature  
Mean Temperature 56 °F -  
Max Temperature 66 °F 48 °F 73 °F (2009)
Min Temperature 46 °F 30 °F 15 °F (2003)
Degree Days  
Heating Degree Days 9    
Growing Degree Days 6 (Base 50)    
Moisture  
Dew Point 45 °F    
Average Humidity 68    
Maximum Humidity 94    
Minimum Humidity 44    
Precipitation  
Precipitation 0.45 in - - ()
Sea Level Pressure  
Sea Level Pressure 29.80 in    
Wind  
Wind Speed 13 mph (South)    
Max Wind Speed 28 mph    
Max Gust Speed 36 mph    
Visibility 10 miles    
Events      
Averages and records for this station are not official NWS values.
T = Trace of Precipitation, MM = Missing Value Source: NWS Daily Summary

Daily Weather History Graph

Daily Weather History Graph

Search for Another Location

Airport or City:

Trip Planner

Search our weather history database for the weather conditions in past years. The results will help you decide how hot, cold, wet, or windy it might be!

Date:

Astronomy

Mar. 10, 2013 Rise Set
Actual Time 7:13 AM CDT 6:57 PM CDT
Civil Twilight 6:47 AM CDT 7:24 PM CDT
Nautical Twilight 6:16 AM CDT 7:54 PM CDT
Astronomical Twilight 5:46 AM CDT 8:25 PM CDT
Moon 6:13 AM CDT (3/10) 6:05 PM CDT (3/10)
Length of Visible Light 12h 36m
Length of Day
11h 44m
Waning Crescent, 2% of the Moon is Illuminated
Mar 10
Waning Crescent
Mar 11
New
Mar 19
First Quarter
Mar 27
Full
Apr 2
Last Quarter

Hourly Weather History & Observations

Time (CDT) Temp. Windchill Dew Point Humidity Pressure Visibility Wind Dir Wind Speed Gust Speed Precip Events Conditions
12:15 AM 57.2 °F - 35.6 °F 44% 29.90 in 10.0 mi South 11.5 mph 18.4 mph N/A   Scattered Clouds
12:35 AM 57.2 °F - 35.6 °F 44% 29.90 in 10.0 mi South 11.5 mph - N/A   Scattered Clouds
12:55 AM 57.2 °F - 35.6 °F 44% 29.90 in 10.0 mi South 10.4 mph - N/A   Mostly Cloudy
1:15 AM 57.2 °F - 35.6 °F 44% 29.89 in 10.0 mi South 12.7 mph 19.6 mph N/A   Overcast
1:35 AM 57.2 °F - 37.4 °F 48% 29.89 in 10.0 mi South 13.8 mph - N/A   Overcast
1:55 AM 57.2 °F - 37.4 °F 48% 29.88 in 10.0 mi South 13.8 mph 20.7 mph N/A   Mostly Cloudy
3:15 AM 57.2 °F - 37.4 °F 48% 29.87 in 10.0 mi South 12.7 mph 21.9 mph N/A   Mostly Cloudy
3:35 AM 57.2 °F - 37.4 °F 48% 29.86 in 10.0 mi South 15.0 mph 21.9 mph N/A   Mostly Cloudy
3:55 AM 57.2 °F - 37.4 °F 48% 29.86 in 10.0 mi South 12.7 mph 23.0 mph N/A   Mostly Cloudy
4:15 AM 57.2 °F - 37.4 °F 48% 29.85 in 10.0 mi South 15.0 mph 20.7 mph N/A   Mostly Cloudy
4:35 AM 57.2 °F - 39.2 °F 51% 29.85 in 10.0 mi South 17.3 mph 23.0 mph N/A   Scattered Clouds
4:55 AM 57.2 °F - 39.2 °F 51% 29.87 in 10.0 mi South 17.3 mph 21.9 mph N/A   Scattered Clouds
5:15 AM 57.2 °F - 39.2 °F 51% 29.86 in 10.0 mi South 12.7 mph 21.9 mph N/A   Scattered Clouds
5:35 AM 57.2 °F - 39.2 °F 51% 29.86 in 10.0 mi South 10.4 mph - N/A   Partly Cloudy
5:55 AM 57.2 °F - 39.2 °F 51% 29.87 in 10.0 mi South 11.5 mph 17.3 mph N/A   Partly Cloudy
6:15 AM 55.4 °F - 41.0 °F 58% 29.87 in 10.0 mi South 9.2 mph - N/A   Mostly Cloudy
7:15 AM 55.4 °F - 42.8 °F 63% 29.86 in 10.0 mi South 9.2 mph - N/A   Overcast
7:35 AM 57.2 °F - 42.8 °F 59% 29.86 in 10.0 mi South 13.8 mph 18.4 mph N/A   Overcast
7:55 AM 57.2 °F - 42.8 °F 59% 29.86 in 10.0 mi South 12.7 mph 18.4 mph N/A   Overcast
8:15 AM 57.2 °F - 42.8 °F 59% 29.87 in 10.0 mi South 13.8 mph 18.4 mph N/A   Overcast
8:35 AM 57.2 °F - 42.8 °F 59% 29.86 in 10.0 mi South 13.8 mph - N/A   Mostly Cloudy
8:55 AM 57.2 °F - 42.8 °F 59% 29.85 in 10.0 mi South 15.0 mph 20.7 mph N/A   Mostly Cloudy
9:15 AM 59.0 °F - 42.8 °F 55% 29.83 in 10.0 mi South 12.7 mph 20.7 mph N/A   Scattered Clouds
9:35 AM 60.8 °F - 44.6 °F 55% 29.84 in 10.0 mi South 18.4 mph 26.5 mph N/A   Mostly Cloudy
9:55 AM 60.8 °F - 44.6 °F 55% 29.83 in 10.0 mi South 19.6 mph 23.0 mph N/A   Mostly Cloudy
10:15 AM 60.8 °F - 46.4 °F 59% 29.82 in 10.0 mi South 16.1 mph 26.5 mph N/A   Mostly Cloudy
10:35 AM 62.6 °F - 46.4 °F 55% 29.82 in 10.0 mi South 18.4 mph 27.6 mph N/A   Overcast
10:55 AM 64.4 °F - 48.2 °F 56% 29.81 in 10.0 mi South 19.6 mph 29.9 mph N/A   Scattered Clouds
11:15 AM 64.4 °F - 46.4 °F 52% 29.82 in 10.0 mi South 20.7 mph 35.7 mph N/A   Mostly Cloudy
11:35 AM 64.4 °F - 48.2 °F 56% 29.82 in 10.0 mi South 27.6 mph 33.4 mph N/A   Overcast
11:55 AM 62.6 °F - 48.2 °F 59% 29.81 in 10.0 mi South 18.4 mph 33.4 mph N/A   Overcast
12:15 PM 62.6 °F - 48.2 °F 59% 29.78 in 10.0 mi South 16.1 mph 27.6 mph N/A   Scattered Clouds
12:35 PM 62.6 °F - 48.2 °F 59% 29.76 in 10.0 mi South 21.9 mph 31.1 mph N/A   Mostly Cloudy
12:55 PM 64.4 °F - 48.2 °F 56% 29.76 in 10.0 mi South 20.7 mph 31.1 mph N/A   Overcast
1:15 PM 66.2 °F - 48.2 °F 52% 29.75 in 10.0 mi South 20.7 mph 33.4 mph N/A   Mostly Cloudy
1:35 PM 64.4 °F - 48.2 °F 56% 29.75 in 10.0 mi South 20.7 mph 29.9 mph N/A   Mostly Cloudy
1:55 PM 64.4 °F - 46.4 °F 52% 29.73 in 10.0 mi South 20.7 mph 33.4 mph N/A   Mostly Cloudy
2:15 PM 64.4 °F - 46.4 °F 52% 29.73 in 10.0 mi South 18.4 mph 33.4 mph N/A   Mostly Cloudy
2:35 PM 64.4 °F - 46.4 °F 52% 29.71 in 10.0 mi South 16.1 mph 28.8 mph N/A   Overcast
2:55 PM 64.4 °F - 46.4 °F 52% 29.71 in 10.0 mi South 17.3 mph 28.8 mph N/A   Overcast
3:15 PM 62.6 °F - 48.2 °F 59% 29.72 in 9.0 mi SSW 20.7 mph 32.2 mph N/A   Overcast
3:35 PM 55.4 °F - 50.0 °F 82% 29.75 in 9.0 mi West 11.5 mph 21.9 mph 0.08 in   Overcast
3:55 PM 53.6 °F - 48.2 °F 82% 29.76 in 9.0 mi West 10.4 mph 16.1 mph 0.12 in   Overcast
4:15 PM 51.8 °F - 48.2 °F 88% 29.77 in 9.0 mi SSW 8.1 mph - 0.04 in   Overcast
4:35 PM 51.8 °F - 48.2 °F 88% 29.77 in 10.0 mi West 5.8 mph - 0.09 in   Overcast
4:55 PM 51.8 °F - 48.2 °F 88% 29.78 in 10.0 mi West 6.9 mph - 0.10 in   Overcast
5:15 PM 51.8 °F - 48.2 °F 88% 29.78 in 9.0 mi Calm Calm - 0.06 in   Overcast
5:35 PM 51.8 °F - 48.2 °F 88% 29.77 in 8.0 mi Calm Calm - 0.11 in   Overcast
5:55 PM 51.8 °F - 48.2 °F 88% 29.76 in 7.0 mi South 3.5 mph - 0.15 in   Overcast
6:15 PM 50.0 °F - 48.2 °F 94% 29.73 in 7.0 mi ESE 5.8 mph - 0.05 in   Overcast
6:35 PM 50.0 °F - 48.2 °F 94% 29.75 in 10.0 mi SE 4.6 mph - 0.08 in   Overcast
6:55 PM 50.0 °F - 48.2 °F 94% 29.76 in 10.0 mi SSE 6.9 mph - 0.08 in   Overcast
7:15 PM 50.0 °F - 48.2 °F 94% 29.76 in 9.0 mi SSE 4.6 mph - N/A   Overcast
7:35 PM 50.0 °F - 48.2 °F 94% 29.76 in 10.0 mi SE 4.6 mph - N/A   Overcast
7:55 PM 50.0 °F - 48.2 °F 94% 29.75 in 10.0 mi SSE 5.8 mph - N/A   Overcast
8:15 PM 50.0 °F - 46.4 °F 87% 29.76 in 10.0 mi South 5.8 mph - N/A   Overcast
8:35 PM 50.0 °F - 46.4 °F 87% 29.77 in 10.0 mi South 4.6 mph - N/A   Overcast
9:15 PM 50.0 °F - 46.4 °F 87% 29.77 in 10.0 mi South 5.8 mph - N/A   Mostly Cloudy
9:35 PM 48.2 °F - 46.4 °F 93% 29.77 in 10.0 mi SSW 5.8 mph - N/A   Scattered Clouds
9:55 PM 48.2 °F - 46.4 °F 93% 29.77 in 10.0 mi SW 6.9 mph - N/A   Mostly Cloudy
10:15 PM 48.2 °F - 46.4 °F 93% 29.77 in 10.0 mi SSW 6.9 mph - N/A   Overcast
10:35 PM 48.2 °F - 46.4 °F 93% 29.77 in 10.0 mi SSW 5.8 mph - N/A   Mostly Cloudy
10:55 PM 46.4 °F 43.5 °F 44.6 °F 93% 29.76 in 10.0 mi SSW 5.8 mph - N/A   Mostly Cloudy
11:15 PM 48.2 °F - 46.4 °F 93% 29.76 in 10.0 mi SSW 9.2 mph - N/A   Mostly Cloudy
11:35 PM 48.2 °F - 46.4 °F 93% 29.76 in 10.0 mi SSW 8.1 mph - N/A   Overcast
11:55 PM 48.2 °F - 46.4 °F 93% 29.76 in 10.0 mi SSW 9.2 mph - N/A   Overcast
12:15 AM 48.2 °F - 46.4 °F 93% 29.76 in 10.0 mi SSW 10.4 mph - N/A   Overcast
12:35 AM 48.2 °F - 46.4 °F 93% 29.75 in 10.0 mi SSW 8.1 mph - N/A   Overcast
12:55 AM 48.2 °F - 46.4 °F 93% 29.74 in 10.0 mi SSW 9.2 mph - N/A   Overcast